Location: Rounton
(54.4000°N, 1.3500°W)
Time: 23:18:59
(UTC+00:00)

deb Explorer IX - Pass Details

Date: 18 December 2021
Orbit: 544 x 1082 km, 38.8° (Epoch: 28 January)

Event Time Altitude Azimuth Distance (km) Brightness Sun altitude
Exits shadow 04:24:55 12° 174° (S) 2,640 ? -32.8°
Maximum altitude 04:26:34 13° 159° (SSE) 2,530 ? -32.6°
Drops below altitude 10° 04:29:22 10° 133° (SE) 2,685 ? -32.2°
Sets 04:33:25 0° 108° (ESE) 3,510 ? -31.6°
